Regional Weather Roundup
Issued by NWS

Home | Current Version | Previous Version | Graphics & Text | Print | Product List | Glossary On
Versions: 1 2 3 4 5 6 7 8 9 10 11 12 13 14 15 16 17 18 19 20 21 22 23 24 25 26 27 28 29 30 31 32 33 34 35 36 37 38 39 40 41 42 43 44 45 46 47 48 49 50
000
ASUS45 KABQ 040010
RWRNM
NEW MEXICO REGIONAL WEATHER ROUNDUP
NATIONAL WEATHER SERVICE ALBUQUERQUE NM
500 PM MST SAT DEC 03 2016

NOTE: "FAIR" MEANS FEW OR NO CLOUDS BELOW 12,000 FEET AGL WITH NO
       SIGNIFICANT WEATHER OR OBSTRUCTIONS TO VISION.

      THIS PRODUCT IS RELEASED AS TWO VERSIONS.  ONE VERSION NEAR
      THE TOP OF THE HOUR CONTAINING PRELIMINARY DATA FROM ALBUQUERQUE
      AND OTHER STATIONS.  A FINAL VERSION WITH ADDITIONAL DATA IS
      ISSUED ABOUT 10 MINUTES AFTER THE HOUR.

NMZ501-503-504-510>518-040100-
NORTHWEST PLATEAU/NORTHCENTRAL MOUNTAINS

CITY           SKY/WX    TMP DP  RH WIND       PRES   REMARKS
FARMINGTON     FAIR      37  15  40 W13       30.04F WCI  29
6HR MIN TEMP:  33; 6HR MAX TEMP:  40;

LOS ALAMOS     FAIR      38  21  50 S3        29.99S
SANTA FE       FAIR      39  22  50 NW7       29.97R WCI  34
6HR MIN TEMP:  39; 6HR MAX TEMP:  46;

TAOS           FAIR      27  16  63 N10       30.00F WCI  17
ANGEL FIRE     FAIR      29  17  59 SW8       29.98S WCI  21

$$
NMZ402-403-502-505>509-040100-
WESTCENTRAL MOUNTAINS/SOUTHWEST MOUNTAINS

CITY           SKY/WX    TMP DP  RH WIND       PRES   REMARKS
GALLUP         FAIR      36  24  62 N12       30.07R WCI  28
6HR MIN TEMP:  33; 6HR MAX TEMP:  43;

GRANTS         FAIR      36  25  64 N12       30.06R WCI  27
SILVER CITY    CLOUDY    44  37  77 SW5       29.96S

$$
NMZ407-409-411-412-040100-
SOUTHERN DESERTS

CITY           SKY/WX    TMP DP  RH WIND       PRES   REMARKS
DEMING         CLOUDY    45  37  73 S5        29.96R
6HR MIN TEMP:  42; 6HR MAX TEMP:  46; 6HR PCP: TRACE;

LAS CRUCES     CLOUDY    48  34  59 CALM      29.96R
HOLLOMAN AFB   CLOUDY    46  38  76 S6        29.98F
T OR C         FAIR      48  30  49 NE10      29.96R
6HR MIN TEMP:  44; 6HR MAX TEMP:  50;


$$
NMZ519>523-040100-
CENTRAL VALLEYS/CENTRAL HIGHLANDS

CITY           SKY/WX    TMP DP  RH WIND       PRES   REMARKS
ALBUQUERQUE    FAIR      44  23  43 N16G25    30.00R
6HR MIN TEMP:  40; 6HR MAX TEMP:  48;

DOUBLE EAGLE   PTCLDY    39  25  56 MISG      30.02R
MORIARTY ARPT  FAIR      37  22  54 NW8       29.97S WCI  31
6HR MIN TEMP:  37; 6HR MAX TEMP:  47;

CLINES CORNERS FAIR      35  24  64 NW12      29.95F WCI  27
6HR MIN TEMP:  34; 6HR MAX TEMP:  42;

BELEN          FAIR      43  29  56 CALM      29.99R
6HR MIN TEMP:  38; 6HR MAX TEMP:  48;

SOCORRO        FAIR      44  30  59 N12G21    29.98S
6HR MIN TEMP:  40; 6HR MAX TEMP:  47;


$$
NMZ524>526-539-540-040100-
SOUTHCENTRAL MOUNTAINS

CITY           SKY/WX    TMP DP  RH WIND       PRES   REMARKS
RUIDOSO          N/A     32  32 100 S7        29.99R WCI  26

$$
NMZ527>531-040100-
NORTHEAST HIGHLANDS/NORTHEAST PLAINS

CITY           SKY/WX    TMP DP  RH WIND       PRES   REMARKS
LAS VEGAS      FAIR      34  26  72 S12       29.91S WCI  25
6HR MIN TEMP:  34; 6HR MAX TEMP:  45;

RATON          FAIR      31  24  75 NW7       29.93R WCI  24
6HR MIN TEMP:  29; 6HR MAX TEMP:  40;

CLAYTON        FAIR      36  34  92 S12       29.92R WCI  28
6HR MIN TEMP:  34; 6HR MAX TEMP:  42;


$$
NMZ532>537-040100-
EASTCENTRAL PLAINS

CITY           SKY/WX    TMP DP  RH WIND       PRES   REMARKS
TUCUMCARI      FAIR      38  34  85 SE6       29.95S WCI  33
6HR MIN TEMP:  34; 6HR MAX TEMP:  42; 6HR PCP: TRACE;

CANNON AFB     CLOUDY    38  38 100 S3        29.97S
6HR MIN TEMP:  35; 6HR MAX TEMP:  38; 6HR PCP: TRACE;

CLOVIS AIRPORT CLOUDY    37  34  87 CALM      29.97F

$$
NMZ028-029-538-040100-
SOUTHEAST PLAINS

CITY           SKY/WX    TMP DP  RH WIND       PRES   REMARKS
ROSWELL        CLOUDY    40  35  83 E3        29.99R
6HR MIN TEMP:  38; 6HR MAX TEMP:  41; 6HR PCP: TRACE;

ARTESIA        MOCLDY    39  39 100 CALM      30.01R
CARLSBAD       CLOUDY    38  37  97 NW7       29.99S WCI  33
6HR MIN TEMP:  37; 6HR MAX TEMP:  38; 6HR PCP:  0.24;

HOBBS          CLOUDY    39  39 100 NE6       29.98F WCI  35


$$




USA.gov is the U.S. government's official web portal to all federal, state and local government web resources and services.